When you browse on this site, cookies collect data to enhance your experience and personalize the content and advertising you see.
Visit our Privacy Policy to learn more. By continuing to use the site, you agree to this use of cookies and data.
  • In Schweiz
  • Länderverzeichnis
  • Für 7 Tage
  • Wassertemperatur
  • Wetterkarte
  • Widgets
  • user-avatar
    Anmelden

    Stündliche Wetter Zürich

    Heute, 21 August, Mittwoch

    Zeit Temperatur Niederschläge Wind Luftdruck Luftfeuchtigkeit
    00:00 +13°C° 0.1 mm 1 m/S 727 mmHg 97%
    01:00 +13°C° 0.1 mm 1 m/S 727 mmHg 96%
    02:00 +12°C° 0 mm 1 m/S 727 mmHg 96%
    03:00 +11°C° 0 mm 1 m/S 726 mmHg 97%
    04:00 +11°C° 0 mm 1 m/S 726 mmHg 97%
    05:00 +11°C° 0 mm 1 m/S 726 mmHg 96%
    06:00 +12°C° 0 mm 1 m/S 726 mmHg 96%
    07:00 +12°C° 0 mm 1 m/S 726 mmHg 96%
    08:00 +14°C° 0 mm 1 m/S 726 mmHg 90%
    09:00 +15°C° 0 mm 2 m/S 726 mmHg 84%
    10:00 +17°C° 0 mm 3 m/S 726 mmHg 79%
    11:00 +18°C° 0 mm 3 m/S 726 mmHg 73%
    12:00 +20°C° 0 mm 3 m/S 726 mmHg 67%
    13:00 +21°C° 0 mm 3 m/S 726 mmHg 61%
    14:00 +21°C° 0 mm 4 m/S 726 mmHg 61%
    15:00 +21°C° 0 mm 4 m/S 725 mmHg 62%
    16:00 +22°C° 0 mm 4 m/S 725 mmHg 62%
    17:00 +20°C° 0 mm 4 m/S 725 mmHg 68%
    18:00 +19°C° 0 mm 3 m/S 725 mmHg 74%
    19:00 +18°C° 0 mm 3 m/S 725 mmHg 80%
    20:00 +17°C° 0 mm 2 m/S 725 mmHg 84%
    21:00 +16°C° 0 mm 2 m/S 725 mmHg 87%
    22:00 +15°C° 0 mm 2 m/S 725 mmHg 90%
    23:00 +14°C° 0 mm 1 m/S 725 mmHg 91%

    Morgen, 22 August, Donnerstag

    Zeit Temperatur Niederschläge Wind Luftdruck Luftfeuchtigkeit
    00:00 +14°C° 0 mm 1 m/S 725 mmHg 93%
    01:00 +13°C° 0 mm 1 m/S 724 mmHg 95%
    02:00 +12°C° 0 mm 0 m/S 724 mmHg 95%
    03:00 +12°C° 0 mm 0 m/S 724 mmHg 96%
    04:00 +11°C° 0 mm 0 m/S 724 mmHg 96%
    05:00 +12°C° 0 mm 0 m/S 724 mmHg 95%
    06:00 +13°C° 0 mm 0 m/S 724 mmHg 93%
    07:00 +13°C° 0 mm 0 m/S 724 mmHg 92%
    08:00 +15°C° 0 mm 1 m/S 725 mmHg 88%
    09:00 +16°C° 0 mm 1 m/S 725 mmHg 85%
    10:00 +19°C° 0 mm 1 m/S 725 mmHg 81%
    11:00 +20°C° 0 mm 1 m/S 725 mmHg 77%
    12:00 +21°C° 0 mm 1 m/S 725 mmHg 74%
    13:00 +21°C° 0 mm 2 m/S 724 mmHg 70%
    14:00 +23°C° 0 mm 2 m/S 724 mmHg 68%
    15:00 +23°C° 0 mm 2 m/S 724 mmHg 67%
    16:00 +24°C° 0 mm 2 m/S 724 mmHg 65%
    17:00 +23°C° 0 mm 2 m/S 724 mmHg 73%
    18:00 +21°C° 0 mm 1 m/S 725 mmHg 81%
    19:00 +20°C° 0 mm 1 m/S 725 mmHg 88%
    20:00 +19°C° 0 mm 1 m/S 725 mmHg 90%
    21:00 +18°C° 0 mm 1 m/S 725 mmHg 92%
    22:00 +16°C° 0 mm 1 m/S 725 mmHg 94%
    23:00 +16°C° 0 mm 1 m/S 725 mmHg 95%

    übermorgen, 23 August, Freitag

    Zeit Temperatur Niederschläge Wind Luftdruck Luftfeuchtigkeit
    00:00 +15°C° 0 mm 1 m/S 725 mmHg 95%
    01:00 +14°C° 0 mm 0 m/S 725 mmHg 96%
    02:00 +14°C° 0 mm 0 m/S 724 mmHg 96%
    03:00 +13°C° 0 mm 0 m/S 724 mmHg 96%
    04:00 +13°C° 0 mm 0 m/S 724 mmHg 96%
    05:00 +14°C° 0 mm 0 m/S 724 mmHg 95%
    06:00 +14°C° 0 mm 0 m/S 724 mmHg 94%
    07:00 +15°C° 0 mm 0 m/S 724 mmHg 93%
    08:00 +16°C° 0 mm 0 m/S 724 mmHg 89%
    09:00 +19°C° 0 mm 1 m/S 724 mmHg 85%
    10:00 +20°C° 0 mm 1 m/S 724 mmHg 81%
    11:00 +22°C° 0.1 mm 1 m/S 724 mmHg 77%
    12:00 +23°C° 0.1 mm 1 m/S 724 mmHg 72%
    13:00 +24°C° 0.1 mm 1 m/S 724 mmHg 67%
    14:00 +25°C° 0.1 mm 2 m/S 724 mmHg 66%
    15:00 +26°C° 0.1 mm 2 m/S 724 mmHg 65%
    16:00 +26°C° 0.1 mm 2 m/S 724 mmHg 64%
    17:00 +25°C° 0.1 mm 2 m/S 724 mmHg 72%
    18:00 +23°C° 0.1 mm 2 m/S 724 mmHg 80%
    19:00 +22°C° 0.1 mm 1 m/S 723 mmHg 88%
    20:00 +21°C° 0.1 mm 1 m/S 724 mmHg 91%
    21:00 +20°C° 0.1 mm 1 m/S 724 mmHg 93%
    22:00 +19°C° 0.1 mm 1 m/S 724 mmHg 95%
    23:00 +16°C° 0 mm 0 m/S 723 mmHg 95%

    24 August, Samstag

    Zeit Temperatur Niederschläge Wind Luftdruck Luftfeuchtigkeit
    00:00 +16°C° 0 mm 0 m/S 723 mmHg 96%
    01:00 +15°C° 0 mm 0 m/S 723 mmHg 96%
    02:00 +15°C° 0 mm 0 m/S 723 mmHg 96%
    03:00 +15°C° 0 mm 0 m/S 723 mmHg 96%
    04:00 +15°C° 0 mm 0 m/S 723 mmHg 96%
    05:00 +15°C° 0 mm 0 m/S 723 mmHg 95%
    06:00 +16°C° 0 mm 0 m/S 723 mmHg 94%
    07:00 +17°C° 0 mm 0 m/S 723 mmHg 93%
    08:00 +18°C° 0 mm 0 m/S 723 mmHg 89%
    09:00 +19°C° 0 mm 0 m/S 723 mmHg 84%
    10:00 +20°C° 0 mm 0 m/S 723 mmHg 80%
    11:00 +24°C° 0.1 mm 1 m/S 723 mmHg 75%
    12:00 +26°C° 0.1 mm 1 m/S 723 mmHg 69%
    13:00 +27°C° 0.1 mm 1 m/S 723 mmHg 63%
    14:00 +27°C° 0.2 mm 1 m/S 722 mmHg 61%
    15:00 +28°C° 0.2 mm 1 m/S 722 mmHg 59%
    16:00 +26°C° 0.2 mm 0 m/S 722 mmHg 57%
    17:00 +24°C° 0.1 mm 0 m/S 722 mmHg 64%
    18:00 +22°C° 0.1 mm 0 m/S 722 mmHg 71%
    19:00 +20°C° 0.1 mm 0 m/S 722 mmHg 79%
    20:00 +19°C° 0 mm 0 m/S 722 mmHg 82%
    21:00 +18°C° 0 mm 0 m/S 722 mmHg 85%
    22:00 +19°C° 0 mm 1 m/S 722 mmHg 89%
    23:00 +19°C° 0 mm 1 m/S 722 mmHg 89%

    25 August, Sonntag

    Zeit Temperatur Niederschläge Wind Luftdruck Luftfeuchtigkeit
    00:00 +18°C° 0 mm 1 m/S 722 mmHg 89%
    01:00 +18°C° 0 mm 1 m/S 722 mmHg 89%
    02:00 +15°C° 0 mm 0 m/S 722 mmHg 89%
    03:00 +15°C° 0 mm 0 m/S 721 mmHg 89%
    04:00 +15°C° 0 mm 0 m/S 721 mmHg 89%
    05:00 +15°C° 0 mm 0 m/S 721 mmHg 88%
    06:00 +16°C° 0 mm 0 m/S 722 mmHg 87%
    07:00 +17°C° 0 mm 0 m/S 722 mmHg 86%
    08:00 +19°C° 0 mm 0 m/S 722 mmHg 77%
    09:00 +22°C° 0 mm 0 m/S 722 mmHg 69%
    10:00 +24°C° 0 mm 0 m/S 723 mmHg 60%
    11:00 +26°C° 0 mm 0 m/S 723 mmHg 54%
    12:00 +29°C° 0 mm 1 m/S 723 mmHg 48%
    13:00 +30°C° 0 mm 1 m/S 722 mmHg 43%
    14:00 +30°C° 0 mm 1 m/S 722 mmHg 42%
    15:00 +30°C° 0 mm 1 m/S 722 mmHg 41%
    16:00 +30°C° 0 mm 1 m/S 722 mmHg 41%
    17:00 +27°C° 0 mm 1 m/S 722 mmHg 50%
    18:00 +25°C° 0 mm 1 m/S 722 mmHg 58%
    19:00 +20°C° 0 mm 0 m/S 722 mmHg 67%
    20:00 +19°C° 0 mm 0 m/S 722 mmHg 69%
    21:00 +20°C° 0 mm 1 m/S 723 mmHg 71%
    22:00 +19°C° 0 mm 1 m/S 723 mmHg 73%
    23:00 +19°C° 0 mm 1 m/S 723 mmHg 74%

    26 August, Montag

    Zeit Temperatur Niederschläge Wind Luftdruck Luftfeuchtigkeit
    00:00 +18°C° 0 mm 1 m/S 723 mmHg 75%
    01:00 +18°C° 0 mm 1 m/S 723 mmHg 76%
    02:00 +16°C° 0 mm 1 m/S 723 mmHg 77%
    03:00 +16°C° 0 mm 1 m/S 723 mmHg 77%
    04:00 +15°C° 0 mm 0 m/S 722 mmHg 78%
    05:00 +15°C° 0 mm 0 m/S 723 mmHg 77%
    06:00 +16°C° 0 mm 0 m/S 723 mmHg 77%
    07:00 +17°C° 0 mm 0 m/S 723 mmHg 76%
    08:00 +19°C° 0 mm 0 m/S 724 mmHg 69%
    09:00 +22°C° 0 mm 0 m/S 724 mmHg 62%
    10:00 +25°C° 0 mm 0 m/S 724 mmHg 55%
    11:00 +26°C° 0 mm 0 m/S 724 mmHg 51%
    12:00 +27°C° 0 mm 0 m/S 724 mmHg 47%
    13:00 +30°C° 0 mm 1 m/S 724 mmHg 43%
    14:00 +30°C° 0 mm 1 m/S 724 mmHg 42%
    15:00 +30°C° 0 mm 1 m/S 724 mmHg 42%
    16:00 +30°C° 0 mm 1 m/S 724 mmHg 41%
    17:00 +27°C° 0 mm 1 m/S 724 mmHg 50%
    18:00 +23°C° 0 mm 0 m/S 724 mmHg 59%
    19:00 +21°C° 0 mm 0 m/S 723 mmHg 68%
    20:00 +22°C° 0 mm 1 m/S 724 mmHg 69%
    21:00 +21°C° 0 mm 1 m/S 724 mmHg 70%
    22:00 +20°C° 0 mm 1 m/S 724 mmHg 71%
    23:00 +20°C° 0 mm 1 m/S 724 mmHg 71%
    Mehr zeigen